AirNav   TITAN Aviation Fuels
 
 620 users online  

M41 Holly Springs-Marshall County Airport
Holly Springs, Mississippi, USA

GOING TO HOLLY SPRINGS?


FAA INFORMATION EFFECTIVE 19 MAY 2022

Location

FAA Identifier: M41
Lat/Long: 34-48-15.7000N 089-31-16.0000W
34-48.261667N 089-31.266667W
34.8043611,-89.5211111
(estimated)
Elevation: 551.3 ft. / 168.0 m (surveyed)
Variation: 02W (2020)
From city: 4 miles W of HOLLY SPRINGS, MS
Time zone: UTC -5 (UTC -6 during Standard Time)
Zip code: 38635

Airport Operations

Airport use: Open to the public
Activation date: 09/1973
Control tower: no
ARTCC: MEMPHIS CENTER
FSS: GREENWOOD FLIGHT SERVICE STATION
NOTAMs facility: GWO (NOTAM-D service available)
Attendance: MON-FRI 0800-1700
Wind indicator: lighted
Segmented circle: yes
Lights: SS-SR
Beacon: white-green (lighted land airport)
Operates sunset to sunrise.

Airport Communications

CTAF/UNICOM: 122.8
MEMPHIS APPROACH: 125.8 120.075 [0600-2300]
MEMPHIS DEPARTURE: 124.15 [0600-2300]
WX AWOS-3 at OLV (17 nm NW): 119.925 (662-893-5906)

Nearby radio navigation aids

VOR radial/distance  VOR name  Freq  Var
HLIr326/2.4HOLLY SPRINGS VORTAC112.4003E
MEMr118/26.0MEMPHIS VORTAC117.5001E

Airport Services

Fuel available: 100LL JET-A
100LL:FUEL 24 HR CREDIT CARD SVC AVBL.
Parking: tiedowns
Airframe service: MAJOR
Powerplant service: MAJOR
Bottled oxygen: NONE
Bulk oxygen: NONE

Runway Information

Runway 18/36

Dimensions: 3202 x 60 ft. / 976 x 18 m
Surface: asphalt, in excellent condition
Weight bearing capacity: 
Single wheel: 15.0
Runway edge lights: medium intensity
RUNWAY 18  RUNWAY 36
Latitude: 34-48.524833N34-47.997133N
Longitude: 089-31.271980W089-31.261590W
Elevation: 516.7 ft.551.3 ft.
Traffic pattern: leftleft
Runway heading: 181 magnetic, 179 true001 magnetic, 359 true
Markings: nonprecision, in fair conditionnonprecision, in fair condition
Visual slope indicator: 2-light PAPI on left (2.75 degrees glide path)2-light PAPI on left (3.25 degrees glide path)
Touchdown point: yes, no lightsyes, no lights

Airport Ownership and Management from official FAA records

Ownership: Publicly-owned
Owner: CITY OF HOLLY SPRINGS
520 J. M. ASH DRIVE
HOLLY SPRINGS, MS 38635
Phone 662-252-4652
AND MARSHALL COUNTY.
Manager: ROD CHILDERS
520 J. M. ASH DRIVE, PO BOX 128
HOLLY SPRINGS, MS 38635
Phone (901) 230-3421

Airport Operational Statistics

Aircraft based on the field: 28
Single engine airplanes: 24
Multi engine airplanes: 2
Helicopters: 2
    
Aircraft operations: avg 53/day *
60% transient general aviation
40% local general aviation
<1% military
* for 12-month period ending 15 December 2021

Additional Remarks

FOR CD CTC MEMPHIS ARTCC AT 901-368-8453/8449.

Instrument Procedures

NOTE: All procedures below are presented as PDF files. If you need a reader for these files, you should download the free Adobe Reader.

NOT FOR NAVIGATION. Please procure official charts for flight.
FAA instrument procedures published for use from 19 May 2022 at 0901Z to 16 June 2022 at 0900Z.

 
IAPs - Instrument Approach Procedures
RNAV (GPS) RWY 18   download (220KB)
RNAV (GPS) RWY 36   download (222KB)
NOTE: Special Take-Off Minimums/Departure Procedures apply   download (150KB)

Other nearby airports with instrument procedures:

KOLV - Olive Branch Airport/Taylor Field (17 nm NW)
KFYE - Fayette County Airport (25 nm N)
KUOX - University-Oxford Airport (25 nm S)
25M - Ripley Airport (25 nm E)
KMEM - Memphis International Airport (27 nm NW)
 
Loc | Ops | Rwys | IFR | FBO | Links
Com | Nav | Svcs | Stats | Notes
Area around M41 (Holly Springs-Marshall County Airport)
 
Road maps at: MapQuest Bing Google
 
Aerial photo
WARNING: Photo may not be current or correct
Aerial photo of M41 (Holly Springs-Marshall County Airport)
Do you have a better or more recent aerial photo of Holly Springs-Marshall County Airport that you would like to share? If so, please send us your photo.

 
Sectional chart

 
Airport distance calculator
Flying to Holly Springs-Marshall County Airport? Find the distance to fly.

From to M41

Sunrise and sunset
Times for 25-May-2022
 Local
(UTC-5)
 Zulu
(UTC)
Morning civil twilight05:2110:21
Sunrise05:5010:50
Sunset20:0001:00
Evening civil twilight20:2901:29

Current date and time
Zulu (UTC)  25-May-2022 10:47:15
Local (UTC-5)  25-May-2022 05:47:15
 
METAR
KOLV 
17nm NW 
250855Z AUTO 14006KT 10SM FEW032 SCT075 BKN090 20/20 A2988 RMK A01
KFYE 
25nm N 
250835Z AUTO 00000KT 4SM BR SCT007 BKN034 OVC065 21/20 A2989 RMK A01
KUOX 
25nm S 
250835Z AUTO 16008G16KT 6SM BR FEW002 SCT032 BKN042 20/20 A2993 RMK AO2 LTG DSNT E PWINO
KMEM 
28nm NW 
250854Z 15009KT 10SM BKN110 OVC150 21/19 A2988 RMK AO2 RAE43 SLP114 P0003 60017 T02110189 50003 $
KPMU 
32nm SW 
250835Z AUTO VRB05KT 7SM -RA SCT011 BKN040 BKN055 21/20 A2988 RMK AO2 LTG DSNT E
TAF
KMEM 
28nm NW 
250704Z 2507/2612 17016G22KT 5SM -SHRA VCTS SCT015 BKN045CB WS020/18045KT TEMPO 2508/2512 2SM SHRA BKN015 FM251400 17014G20KT P6SM SCT025 BKN200 FM252100 17010KT P6SM VCSH SCT050 OVC200 FM260500 18010KT 6SM -RA OVC025
NOTAMs
Click for the latest NOTAMs
NOTAMs are issued by the DoD/FAA and will open in a separate window not controlled by AirNav.

 

 
 

Would you like to see your business listed on this page?

 If your business provides an interesting product or service to pilots, flight crews, aircraft, or users of the Holly Springs-Marshall County Airport, you should consider listing it here.  To start the listing process, click on the button below
 
Add a business
 

Other Pages about Holly Springs-Marshall County Airport

Update a link
 
Copyright © AirNav, LLC. All rights reserved. Privacy Policy  Contact